CAPE
0 0 0 3 0 0 0 0 0 0 0 0 0 0 2 91 260 5 107 577 392 316 1250 2444 3064 2774 2537 2292 1974 1465 730 219 176 302 972 778 172 13 9 12 12 14 25 321 363 584 608 680 625
0 2 29 74 0 0 0 0 0 0 0 0 0 171 12 722 608 338 612 603 525 617 1264 2285 3249 2894 2702 2452 2162 1885 890 415 202 128 562 528 141 10 13 14 14 14 82 269 303 637 569 472 429
0 0 113 44 0 0 0 0 0 0 0 0 0 322 821 949 434 458 148 880 998 1003 1313 2304 2903 2820 2668 2410 2031 2142 1145 437 226 317 835 558 183 8 14 15 15 15 21 265 216 499 375 246 283
0 0 0 40 0 0 0 0 0 0 0 0 0 83 768 376 217 12 1080 1132 1694 1552 1396 2568 2744 2806 2527 1965 1855 2072 1348 641 309 430 995 635 199 7 12 12 13 13 23 60 43 186 200 244 238
0 0 0 0 0 0 0 0 0 0 0 0 0 14 1054 530 210 72 1310 1799 1888 1525 1575 2329 2496 2231 2370 1889 1986 1807 1447 1215 829 652 1017 706 255 23 10 5 6 13 19 18 27 54 52 165 181
0 0 0 0 0 0 0 0 0 0 0 0 0 0 1030 340 135 1 958 1636 2025 1782 1742 2231 2271 2341 2164 2007 2023 1762 1210 1348 1206 864 1217 726 439 45 8 2 0 10 23 33 27 58 49 39 40
0 0 0 0 0 0 0 0 0 0 0 0 0 83 100 588 226 48 411 1211 1908 1956 1947 1949 1588 1582 1880 1984 2000 1694 1371 1027 1186 1142 960 843 618 144 32 3 0 1 33 33 141 79 56 31 20
0 0 0 0 0 0 0 0 0 0 0 0 146 81 31 840 608 389 451 482 228 387 1043 0 0 947 1223 1382 1929 1562 1530 1207 881 1024 963 860 651 492 58 2 0 0 30 44 27 51 29 27 0
0 0 0 0 0 0 0 0 0 0 0 0 124 436 368 546 606 660 437 381 264 213 28 0 0 0 227 731 1142 1483 1481 1364 820 751 1014 638 129 28 2 0 2 0 19 47 18 31 18 2 1
0 0 0 0 0 0 0 0 0 0 0 0 0 71 485 373 170 700 500 368 393 465 98 0 0 0 0 738 779 470 734 345 83 478 134 1 0 0 0 1 4 0 6 56 13 28 0 0 0
0 0 0 0 0 0 0 0 0 0 0 0 0 0 3 712 168 65 259 291 330 123 34 0 0 0 0 74 323 223 53 170 230 2 0 0 0 0 0 0 0 0 1 4 0 0 0 0 0
0 0 0 0 0 0 0 0 0 0 0 0 0 0 0 0 79 281 2 89 39 4 1 0 15 0 0 27 293 218 185 310 143 10 0 0 0 0 0 0 0 0 0 0 0 0 0 0 0
0 0 0 0 0 0 0 0 0 0 0 0 0 0 0 0 0 0 0 57 0 0 0 0 3 1 89 187 229 200 224 351 101 6 0 0 0 0 0 0 0 0 0 0 0 0 0 0 0
0 0 0 0 0 0 0 0 0 0 0 0 0 0 0 0 0 0 0 0 65 0 0 3 0 117 1 0 82 159 168 314 118 8 0 0 0 0 0 0 0 0 0 0 0 0 0 0 0
0 0 0 0 0 0 0 0 0 0 0 0 0 0 0 0 0 0 0 0 0 0 0 21 78 87 4 139 7 59 18 201 179 28 0 0 0 0 0 0 0 0 0 0 0 0 0 0 0
0 0 0 0 0 0 0 0 0 0 0 0 0 0 0 0 0 0 0 0 0 3 135 202 149 65 48 25 4 53 7 113 240 69 0 0 0 0 0 0 0 0 0 0 0 0 0 0 0
0 0 0 0 0 0 0 0 0 0 0 0 0 0 0 0 0 0 0 0 0 0 390 289 178 141 63 35 24 32 40 140 295 192 0 0 0 0 0 0 0 0 0 0 0 0 0 0 0
0 0 0 0 0 0 0 0 0 0 0 0 0 0 0 0 0 0 0 0 0 0 468 411 391 412 238 165 126 69 108 157 69 128 0 0 0 0 0 0 0 0 0 0 0 0 0 0 0
0 0 0 0 0 0 0 0 0 0 0 0 0 0 0 0 0 0 0 0 0 4 452 431 546 549 367 234 246 242 191 108 0 0 0 0 0 0 0 0 0 0 0 0 0 0 0 0 0
0 0 0 0 0 0 0 0 0 0 0 0 0 0 0 0 0 0 0 0 0 0 343 350 391 326 282 259 183 136 136 46 0 2 0 0 0 0 0 0 0 0 0 0 0 0 0 0 0
0 0 0 0 0 0 0 0 0 0 0 0 0 0 2 0 1 0 0 0 0 0 428 288 272 169 124 108 113 8 2 1 1 3 1 0 0 0 0 0 0 0 0 0 0 0 0 0 0
0 0 0 0 0 0 0 0 0 0 0 0 0 0 0 0 2 1 0 0 0 0 308 325 268 107 37 11 35 48 0 1 2 3 2 0 0 0 0 0 0 0 0 0 0 0 0 0 0
0 0 0 0 0 0 0 0 0 0 0 0 0 1 0 0 1 1 1 0 0 4 136 9 0 0 0 0 0 0 0 0 0 0 0 2 0 0 0 0 0 0 0 0 0 0 0 0 0
0 0 0 0 0 0 0 0 0 0 0 0 0 0 0 1 1 1 60 56 192 117 79 4 0 0 0 0 0 0 0 0 0 1 0 0 0 0 0 0 0 0 0 0 0 0 0 0 0
0 0 0 0 0 0 0 0 0 0 0 0 0 0 1 2 1 1 95 142 61 77 21 3 0 1 1 1 1 0 0 0 0 0 0 0 0 0 0 0 0 0 0 0 0 0 0 0 0
0 0 0 0 0 0 0 0 0 0 0 0 0 0 0 0 1 2 6 44 70 17 2 2 2 1 1 0 1 1 2 1 2 1 0 0 0 0 0 0 0 0 0 0 0 0 0 0 0
0 0 0 0 0 0 0 0 0 0 0 0 0 0 1 1 1 1 3 3 4 3 3 2 2 2 1 1 1 0 1 1 1 0 0 0 0 1 0 0 0 0 0 0 0 0 0 0 0
0 0 0 0 0 0 0 0 0 0 0 0 0 0 0 0 0 1 1 2 1 3 2 1 1 1 2 2 1 1 1 1 1 2 2 1 1 0 0 0 0 0 0 0 0 0 0 0 0
0 0 0 0 0 0 0 0 0 0 0 0 0 0 0 1 0 1 1 1 0 0 0 1 1 0 1 1 1 1 1 1 1 1 2 3 0 0 0 0 0 0 0 0 0 0 0 0 0
0 0 0 0 0 0 0 0 0 0 0 0 0 0 0 0 0 0 0 0 0 0 0 0 0 0 0 0 0 0 0 0 0 0 0 0 0 0 0 0 0 0 0 0 0 0 0 0 0
CIN
-0 -0 -0 -60 -0 -0 -0 -0 -0 -0 -0 -0 -0 -0 -19 -133 -59 -47 -564 -359 -410 -388 -112 -0 -0 -0 -0 -0 -0 -0 -1 -73 -75 -24 -0 -0 -53 -0 -0 -0 -0 -0 -7 -17 -5 -0 -0 -0 -0
-0 -24 -450 -316 -0 -0 -0 -0 -0 -0 -0 -0 -0 -104 -26 -109 -232 -361 -294 -317 -328 -278 -119 -0 -0 -0 -0 -0 -0 -0 -0 -29 -67 -76 -3 -0 -64 -0 -0 -0 -0 -0 -82 -19 -16 -0 -0 -1 -6
-0 -0 -254 -321 -0 -0 -0 -0 -0 -0 -0 -0 -0 -126 -134 -161 -272 -312 -398 -253 -201 -156 -82 -1 -0 -0 -0 -0 -0 -0 -0 -27 -61 -28 -0 -0 -52 -0 -0 -0 -0 -0 -2 -27 -38 -0 -5 -23 -22
-0 -0 -0 -280 -0 -0 -0 -0 -0 -0 -0 -0 -0 -116 -222 -342 -425 -549 -234 -215 -84 -72 -44 -3 -0 -0 -0 -0 -0 -0 -0 -0 -31 -9 -0 -0 -48 -0 -0 -0 -0 -0 -9 -115 -2 -44 -36 -36 -44
-0 -0 -0 -0 -0 -0 -0 -0 -0 -0 -0 -0 -0 -55 -120 -276 -426 -469 -210 -87 -47 -50 -29 -1 -1 -1 -0 -0 -0 -0 -0 -0 -0 -0 -0 -0 -34 -24 -0 -0 -0 -0 -0 -0 -0 -0 -0 -89 -66
-0 -0 -0 -0 -0 -0 -0 -0 -0 -0 -0 -0 -0 -26 -104 -298 -415 -114 -258 -104 -26 -24 -19 -2 -2 -0 -0 -0 -0 -0 -0 -0 -0 -0 -0 -0 -12 -109 -0 -0 -0 -0 -0 -0 -0 -0 -0 -0 -0
-0 -0 -0 -0 -0 -0 -0 -0 -0 -0 -0 -0 -0 -112 -151 -188 -376 -511 -388 -188 -54 -10 -13 -8 -10 -8 -1 -0 -0 -0 -0 -0 -0 -0 -0 -0 -0 -62 -88 -0 -0 -0 -0 -0 -40 -11 -0 -0 -1
-0 -0 -0 -0 -0 -0 -0 -0 -0 -0 -0 -0 -185 -155 -172 -142 -234 -334 -316 -306 -373 -251 -82 -0 -0 -36 -16 -4 -0 -0 -0 -0 -0 -0 -0 -0 -0 -1 -76 -0 -0 -0 -0 -0 -0 -0 -0 -0 -0
-0 -0 -0 -0 -0 -0 -0 -0 -0 -0 -0 -0 -219 -109 -197 -262 -234 -188 -267 -290 -319 -307 -432 -0 -0 -0 -52 -44 -10 -0 -0 -0 -0 -0 -0 -0 -26 -56 -3 -0 -0 -0 -0 -0 -0 -0 -0 -0 -0
-0 -0 -0 -0 -0 -0 -0 -0 -0 -0 -0 -0 -0 -87 -190 -267 -347 -171 -199 -244 -214 -127 -273 -0 -0 -0 -0 -5 -27 -48 -10 -16 -43 -10 -4 -3 -0 -0 -0 -0 -0 -0 -0 -0 -0 -0 -0 -0 -0
-0 -0 -0 -0 -0 -0 -0 -0 -0 -0 -0 -0 -0 -0 -32 -148 -302 -370 -269 -259 -219 -248 -292 -0 -0 -0 -0 -56 -71 -87 -179 -74 -37 -3 -0 -0 -0 -0 -0 -0 -0 -0 -0 -0 -0 -0 -0 -0 -0
-0 -0 -0 -0 -0 -0 -0 -0 -0 -0 -0 -0 -0 -0 -0 -0 -271 -239 -40 -262 -249 -141 -80 -0 -447 -0 -0 -2 -57 -105 -93 -41 -62 -130 -0 -0 -0 -0 -0 -0 -0 -0 -0 -0 -0 -0 -0 -0 -0
-0 -0 -0 -0 -0 -0 -0 -0 -0 -0 -0 -0 -0 -0 -0 -0 -0 -0 -0 -384 -0 -0 -0 -0 -411 -165 -40 -3 -24 -85 -100 -47 -98 -108 -0 -0 -0 -0 -0 -0 -0 -0 -0 -0 -0 -0 -0 -0 -0
-0 -0 -0 -0 -0 -0 -0 -0 -0 -0 -0 -0 -0 -0 -0 -0 -0 -0 -0 -0 -302 -0 -0 -431 -0 -96 -43 -0 -5 -46 -125 -77 -105 -53 -0 -0 -0 -0 -0 -0 -0 -0 -0 -0 -0 -0 -0 -0 -0
-0 -0 -0 -0 -0 -0 -0 -0 -0 -0 -0 -0 -0 -0 -0 -0 -0 -0 -0 -0 -0 -0 -0 -248 -102 -131 -85 -0 -93 -19 -114 -91 -80 -137 -0 -0 -0 -0 -0 -0 -0 -0 -0 -0 -0 -0 -0 -0 -0
-0 -0 -0 -0 -0 -0 -0 -0 -0 -0 -0 -0 -0 -0 -0 -0 -0 -0 -0 -0 -0 -149 -244 -120 -127 -166 -127 -169 -158 -40 -7 -55 -31 -80 -0 -0 -0 -0 -0 -0 -0 -0 -0 -0 -0 -0 -0 -0 -0
-0 -0 -0 -0 -0 -0 -0 -0 -0 -0 -0 -0 -0 -0 -0 -0 -0 -0 -0 -0 -0 -0 -142 -115 -127 -84 -166 -238 -134 -43 -1 -12 -12 -43 -0 -0 -0 -0 -0 -0 -0 -0 -0 -0 -0 -0 -0 -0 -0
-0 -0 -0 -0 -0 -0 -0 -0 -0 -0 -0 -0 -0 -0 -0 -0 -0 -0 -0 -0 -0 -0 -135 -86 -92 -32 -36 -92 -31 -11 -6 -1 -64 -64 -0 -0 -0 -0 -0 -0 -0 -0 -0 -0 -0 -0 -0 -0 -0
-0 -0 -0 -0 -0 -0 -0 -0 -0 -0 -0 -0 -0 -0 -0 -0 -0 -0 -0 -0 -0 -145 -153 -156 -96 -29 -15 -58 -11 -0 -4 -2 -0 -0 -0 -0 -0 -0 -0 -0 -0 -0 -0 -0 -0 -0 -0 -0 -0
-0 -0 -0 -0 -0 -0 -0 -0 -0 -0 -0 -0 -0 -0 -0 -0 -0 -0 -0 -0 -0 -0 -178 -194 -153 -116 -116 -102 -93 -47 -7 -14 -0 -0 -0 -0 -0 -0 -0 -0 -0 -0 -0 -0 -0 -0 -0 -0 -0
-0 -0 -0 -0 -0 -0 -0 -0 -0 -0 -0 -0 -0 -0 -7 -0 -5 -0 -0 -0 -0 -0 -143 -224 -237 -241 -236 -202 -147 -79 -0 -0 -0 -0 -0 -0 -0 -0 -0 -0 -0 -0 -0 -0 -0 -0 -0 -0 -0
-0 -0 -0 -0 -0 -0 -0 -0 -0 -0 -0 -0 -0 -0 -0 -0 -0 -0 -0 -0 -0 -0 -174 -174 -209 -274 -286 -297 -170 -165 -0 -0 -0 -0 -0 -0 -0 -0 -0 -0 -0 -0 -0 -0 -0 -0 -0 -0 -0
-0 -0 -0 -0 -0 -0 -0 -0 -0 -0 -0 -0 -0 -6 -12 -0 -0 -0 -9 -0 -0 -312 -203 -284 -0 -0 -0 -0 -0 -0 -0 -0 -0 -0 -0 -0 -0 -0 -0 -0 -0 -0 -0 -0 -0 -0 -0 -0 -0
-0 -0 -0 -0 -0 -0 -0 -0 -0 -0 -0 -0 -0 -0 -0 -0 -0 -0 -179 -178 -124 -152 -164 -187 -0 -0 -0 -0 -0 -0 -0 -0 -0 -0 -0 -0 -0 -0 -0 -0 -0 -0 -0 -0 -0 -0 -0 -0 -0
-0 -0 -0 -0 -0 -0 -0 -0 -0 -0 -0 -0 -0 -0 -0 -0 -0 -0 -72 -68 -94 -104 -177 -0 -0 -0 -0 -0 -0 -0 -0 -0 -0 -0 -0 -0 -0 -0 -0 -0 -0 -0 -0 -0 -0 -0 -0 -0 -0
-0 -0 -0 -0 -0 -0 -0 -0 -0 -0 -0 -0 -0 -0 -0 -0 -0 -0 -80 -46 -29 -38 -0 -0 -0 -0 -0 -0 -0 -0 -0 -0 -0 -0 -0 -0 -0 -0 -0 -0 -0 -0 -0 -0 -0 -0 -0 -0 -0
-0 -0 -0 -0 -0 -0 -0 -0 -0 -0 -0 -0 -0 -0 -0 -0 -0 -0 -0 -0 -0 -0 -0 -0 -0 -0 -0 -0 -0 -0 -0 -0 -0 -0 -0 -0 -0 -0 -0 -0 -0 -0 -0 -0 -0 -0 -0 -0 -0
-0 -0 -0 -0 -0 -0 -0 -0 -0 -0 -0 -0 -0 -0 -0 -0 -0 -0 -0 -0 -0 -0 -0 -0 -0 -0 -0 -0 -0 -0 -0 -0 -0 -0 -0 -0 -0 -0 -0 -0 -0 -0 -0 -0 -0 -0 -0 -0 -0
-0 -0 -0 -0 -0 -0 -0 -0 -0 -0 -0 -0 -0 -0 -0 -0 -0 -0 -0 -0 -0 -0 -0 -0 -0 -0 -0 -0 -0 -0 -0 -0 -0 -0 -0 -0 -0 -0 -0 -0 -0 -0 -0 -0 -0 -0 -0 -0 -0
-0 -0 -0 -0 -0 -0 -0 -0 -0 -0 -0 -0 -0 -0 -0 -0 -0 -0 -0 -0 -0 -0 -0 -0 -0 -0 -0 -0 -0 -0 -0 -0 -0 -0 -0 -0 -0 -0 -0 -0 -0 -0 -0 -0 -0 -0 -0 -0 -0
Wind_Speed
4 4 2 4 5 5 3 6 3 7 7 5 7 7 2 2 2 5 1 6 11 17 12 16 20 22 21 20 21 21 20 19 18 16 16 18 18 18 17 16 16 15 14 15 15 16 19 19 20
2 2 4 3 5 2 6 4 5 3 8 13 8 3 5 5 4 3 4 2 13 13 11 12 19 20 20 20 21 21 20 19 18 17 16 17 17 17 17 16 16 16 15 15 16 17 19 19 19
1 2 4 4 3 5 4 3 6 14 12 5 5 5 3 2 4 2 1 9 12 10 9 9 19 20 20 20 21 21 20 20 19 18 19 19 18 17 17 17 16 16 15 16 17 18 19 20 20
2 5 5 4 4 5 4 7 7 13 7 7 5 1 4 2 3 5 8 13 12 8 6 9 19 19 20 21 21 20 21 20 19 17 19 20 19 18 17 17 16 16 16 17 17 18 19 20 21
4 3 4 2 4 4 5 4 8 7 5 5 6 4 3 3 3 7 8 9 10 6 5 8 18 19 20 21 21 20 19 18 18 16 17 20 19 19 18 17 17 16 16 15 16 17 19 20 20
5 3 4 2 4 4 5 5 5 6 6 7 6 4 2 4 6 4 8 7 6 7 6 7 16 18 19 21 21 20 19 18 18 16 15 18 20 19 17 17 17 16 16 16 15 18 20 19 20
6 4 4 3 4 4 2 8 3 5 5 6 3 4 2 2 2 4 5 7 7 5 5 3 6 12 18 18 19 20 20 17 17 16 16 18 18 19 18 16 16 17 16 18 19 21 21 19 19
5 5 3 2 2 4 2 5 2 3 5 6 2 4 4 2 3 3 4 7 8 5 7 9 10 5 7 9 17 19 18 17 15 14 13 17 18 18 17 16 16 16 16 19 20 21 19 18 19
4 5 2 3 1 6 4 4 3 3 3 4 2 1 2 1 2 1 2 3 5 6 8 8 7 11 12 5 11 18 18 16 15 12 14 15 5 9 10 11 15 17 17 19 19 22 20 18 18
5 4 7 5 3 4 4 1 4 3 5 3 5 3 3 4 3 5 5 5 5 6 7 10 6 6 10 13 8 7 11 7 5 5 7 5 5 5 6 9 14 16 17 18 19 21 19 12 5
3 5 4 5 6 6 4 5 1 3 6 6 7 7 5 4 4 7 8 9 8 6 5 7 8 3 14 15 5 3 4 5 4 7 6 7 5 4 3 2 4 3 9 4 7 8 4 7 6
0 5 4 4 4 1 3 2 6 2 6 10 6 6 5 6 5 7 9 8 5 8 6 2 9 11 10 15 7 8 7 6 5 6 8 7 4 4 4 3 4 4 4 6 5 5 6 7 6
3 3 3 6 8 6 2 4 4 2 5 7 8 10 9 7 8 7 7 9 4 5 4 6 8 2 3 14 4 6 8 7 7 7 7 6 6 5 4 4 4 4 4 5 4 6 6 7 6
1 4 7 6 6 4 2 1 5 0 7 8 10 8 6 6 6 5 8 9 5 6 7 7 6 8 4 6 4 1 6 8 8 7 8 7 6 5 4 4 4 4 4 4 5 8 7 5 6
3 4 7 2 4 2 5 1 2 4 4 8 9 8 6 5 5 7 6 8 8 7 12 10 9 8 4 3 4 4 4 6 7 7 9 10 7 7 6 4 4 4 4 6 6 6 6 6 4
4 4 5 7 4 2 5 7 0 5 4 7 7 8 8 8 6 6 7 8 10 6 14 16 13 14 14 13 6 2 2 4 6 7 7 10 9 9 7 5 4 4 4 5 7 7 6 5 5
6 1 2 8 2 1 3 6 1 4 5 7 7 8 10 13 13 10 10 11 10 9 13 14 16 17 13 6 9 6 5 3 5 6 7 10 10 8 7 7 5 6 5 5 8 4 8 6 4
4 2 4 6 4 1 3 7 3 3 4 4 5 5 7 9 8 11 13 11 10 11 10 13 10 15 13 9 9 8 7 3 3 6 5 10 8 10 7 5 7 6 5 5 5 7 4 4 6
3 3 4 4 4 3 5 5 5 4 4 6 7 9 11 9 9 11 11 10 9 7 9 12 10 16 11 9 8 6 9 5 3 3 5 8 10 10 7 5 7 6 7 6 7 4 8 3 3
4 2 5 5 4 2 2 6 3 5 5 2 8 12 10 9 9 11 12 8 7 5 6 7 8 9 9 6 9 3 5 3 5 3 5 1 8 7 8 7 6 6 6 7 6 7 4 2 3
2 4 3 6 5 1 0 6 2 4 3 5 6 6 10 10 12 12 12 10 6 5 6 8 10 10 7 9 9 7 8 6 5 5 4 6 4 6 6 4 6 6 6 8 6 6 7 4 1
3 5 3 3 3 3 3 5 3 4 8 4 8 9 10 14 12 11 11 11 6 5 4 3 5 6 7 6 6 11 9 10 4 5 5 5 8 8 6 5 5 7 4 7 5 5 5 6 4
7 2 3 3 3 2 2 3 6 5 7 10 11 13 13 13 14 13 8 6 6 1 6 7 9 7 6 5 5 6 8 6 10 9 11 7 6 7 5 1 5 5 4 4 6 5 5 4 4
2 3 6 4 3 2 3 4 5 4 5 8 10 13 13 14 14 13 10 7 9 7 9 10 9 8 6 5 5 6 10 11 9 8 8 7 4 8 7 5 5 4 5 6 6 7 8 8 6
5 5 3 4 5 6 1 2 8 4 2 3 11 12 11 10 12 13 14 13 10 8 10 9 9 11 9 10 9 9 9 8 9 8 8 9 6 5 6 6 6 4 5 6 7 9 8 6 8
2 6 7 6 2 6 4 4 5 3 2 3 6 8 8 9 10 12 12 9 9 11 10 10 9 9 9 9 10 9 11 7 6 6 6 3 6 7 8 7 6 7 8 8 7 5 5 7 6
3 2 4 7 1 3 4 5 1 2 4 5 7 7 9 7 9 10 9 8 7 10 10 10 9 8 8 8 7 8 7 11 8 7 6 6 7 6 7 7 7 4 8 6 4 4 3 4 4
2 7 3 4 2 3 5 5 6 5 5 5 4 5 7 9 8 9 9 9 9 9 9 10 10 9 8 8 8 7 8 10 8 6 7 7 8 7 8 6 6 5 5 4 3 3 2 3 3
2 1 4 4 4 4 2 7 6 6 6 6 5 3 4 6 6 7 7 7 8 8 9 9 9 11 9 8 9 9 9 10 9 6 6 7 8 7 7 7 7 5 5 3 3 1 2 2 3
4 6 6 6 4 1 3 7 2 5 7 6 3 2 1 2 4 5 6 7 7 8 8 8 8 9 8 9 9 9 10 8 9 7 5 8 9 6 6 6 6 4 3 3 3 4 3 4 4
Wind_Direction
342 318 68 46 50 60 275 266 270 317 321 311 276 281 235 92 157 216 34 159 129 157 171 171 166 163 158 163 156 146 143 139 134 131 127 125 121 118 115 113 113 111 102 87 83 92 86 82 83
326 103 46 89 88 62 268 272 275 296 291 305 297 274 21 31 36 49 70 155 144 156 167 169 167 164 162 162 155 148 148 142 141 138 136 132 126 124 121 118 114 113 109 98 94 97 90 89 87
266 42 87 99 127 192 232 257 326 309 306 288 332 38 46 325 21 129 309 137 146 159 172 176 169 167 166 160 156 151 151 147 147 147 143 138 131 130 124 121 118 116 115 103 97 99 97 92 89
92 16 27 99 224 253 237 318 305 318 332 14 346 94 56 159 307 277 137 139 149 148 170 187 174 172 165 161 158 155 153 152 151 152 146 140 136 134 128 124 121 119 121 112 99 103 100 94 91
38 56 73 102 258 266 297 307 320 312 298 316 337 331 36 16 303 37 112 132 139 144 166 183 180 176 168 164 159 156 156 157 154 157 153 145 141 137 133 128 126 126 122 118 112 108 103 100 94
46 95 70 215 255 277 301 337 295 350 339 324 30 333 350 343 357 347 104 121 124 148 181 194 183 180 172 166 162 160 161 161 159 162 165 154 146 141 137 133 131 130 124 116 115 120 107 103 98
111 87 180 197 264 305 331 319 47 329 336 345 313 353 268 272 260 317 93 103 139 147 161 205 205 189 180 174 168 163 162 165 164 168 167 158 149 144 140 134 132 129 129 115 114 108 107 105 99
107 94 129 251 263 269 279 336 300 46 292 297 355 10 324 251 229 275 79 90 85 79 94 50 6 279 204 188 174 170 166 164 167 169 167 159 150 141 141 138 135 131 137 122 112 112 113 106 104
110 68 162 231 169 274 290 5 303 327 357 314 42 302 308 176 266 312 11 57 50 95 98 39 25 13 321 221 191 172 166 161 163 167 157 147 145 138 134 140 139 137 142 127 118 116 112 107 103
91 113 210 217 215 233 275 310 305 359 324 297 327 293 175 198 242 219 232 220 196 203 141 112 336 332 347 256 195 185 163 148 144 137 124 114 110 118 135 144 140 140 144 128 123 119 111 93 74
153 171 206 251 230 225 240 303 198 315 315 237 265 294 288 221 263 242 239 223 202 167 143 142 170 234 280 291 175 170 141 127 119 124 127 131 125 120 111 117 119 116 126 82 97 101 88 98 98
171 239 218 262 229 262 265 330 328 72 284 304 281 269 354 3 318 260 273 277 256 170 173 183 176 167 229 272 179 159 147 139 134 143 139 137 122 123 132 121 117 110 104 94 100 106 99 86 82
188 260 245 254 279 252 240 269 209 31 340 7 46 49 41 19 7 357 299 273 167 240 117 198 159 232 286 265 170 169 151 151 144 144 148 142 142 142 135 129 128 131 111 116 112 120 109 101 94
251 283 281 288 274 235 207 49 144 31 6 9 27 20 18 23 13 4 352 344 243 192 181 156 157 157 58 302 352 247 170 153 149 151 154 146 147 146 140 138 144 135 118 128 123 134 124 109 111
288 332 326 254 316 252 141 336 99 343 20 22 11 349 348 1 3 2 326 322 315 222 179 192 177 154 170 258 35 328 262 150 149 161 158 154 151 156 148 147 151 144 128 114 109 98 108 105 93
26 50 19 296 340 47 88 263 346 353 13 17 1 347 337 336 345 344 333 321 320 296 193 187 179 174 198 199 144 207 271 199 159 160 167 166 161 159 150 149 152 135 115 111 126 129 112 110 127
5 262 273 311 326 247 147 258 253 359 4 17 2 351 343 341 348 348 338 319 307 314 187 181 178 184 201 182 160 203 226 197 183 170 175 173 162 159 161 157 145 140 123 116 136 95 135 129 110
245 281 263 245 291 342 266 257 269 301 4 341 316 350 345 333 322 326 321 315 310 318 163 174 173 172 179 163 172 179 212 208 175 184 174 167 162 162 156 150 144 141 126 124 116 126 72 130 140
207 211 255 257 257 298 254 242 234 293 277 346 349 4 344 331 317 309 313 312 313 340 158 162 174 164 168 173 175 191 195 161 140 169 181 166 157 160 158 152 141 142 145 153 138 109 126 88 119
200 231 270 293 264 222 245 259 243 282 287 347 6 340 332 327 317 306 314 317 321 331 147 155 159 153 168 175 171 154 165 139 103 73 57 346 149 156 162 155 155 153 128 137 147 140 121 92 180
236 192 224 231 317 316 280 311 314 291 297 357 325 299 330 332 331 321 314 313 317 353 145 165 160 149 159 146 129 110 111 78 76 80 59 5 65 92 57 170 153 154 146 155 159 153 132 133 220
288 209 196 280 6 258 45 280 303 306 305 340 327 342 339 342 336 328 309 308 313 343 122 170 91 107 134 107 130 142 126 119 93 68 83 58 35 46 32 315 152 159 150 152 155 152 146 128 147
224 92 262 231 216 356 320 77 268 336 318 333 337 340 349 346 340 334 301 291 312 122 102 96 83 65 75 98 109 113 120 120 144 136 134 114 101 71 69 259 132 125 108 113 137 126 119 111 129
59 85 44 44 75 341 281 126 285 307 285 316 335 337 352 348 352 356 38 63 70 82 89 86 73 60 59 94 94 135 141 148 137 130 121 117 132 96 70 59 54 68 108 117 112 106 103 101 96
76 55 346 357 6 228 357 52 247 262 255 305 321 326 348 355 1 13 35 48 65 81 85 94 72 65 69 74 90 98 103 111 119 138 127 133 120 94 84 72 65 64 77 85 100 106 111 111 102
122 140 151 205 208 270 314 251 270 209 226 345 309 321 337 21 11 18 28 36 61 69 73 76 73 70 56 67 82 111 114 117 110 95 104 97 109 117 106 91 78 88 76 71 77 81 92 95 98
180 127 162 109 39 39 263 293 303 210 309 338 332 352 344 16 24 26 28 37 49 71 79 78 74 71 74 68 70 70 101 107 105 127 122 124 117 134 126 126 120 96 91 88 82 81 84 93 89
161 158 92 7 106 279 294 288 246 263 259 283 339 358 345 350 30 26 33 38 48 66 77 76 79 74 71 71 75 72 77 86 87 86 121 126 123 128 130 124 110 105 97 90 66 55 24 53 78
140 155 66 114 138 177 295 265 215 204 193 216 266 334 354 353 15 31 35 41 52 64 69 85 86 85 74 71 80 72 73 75 78 74 90 114 108 112 127 132 120 123 129 123 113 153 219 172 136
178 178 144 123 212 191 152 273 7 160 181 191 236 284 80 32 30 33 48 61 54 56 58 59 67 69 74 77 73 76 71 75 85 81 87 93 94 108 118 116 110 118 115 126 160 149 145 137 136